Header for Extended Forecast Station List Page

Search by: ID | Name | Date | Parm | Value | Avg | % Avg
Sort by: ID | Name | Date | Parm | Value | Avg | % Avg

Enter search or view all records.

Click on id for station plot
#IDNameDateParmValueAvg% Avg
0LEOI1KOOTENAI-AT LEONIA07-22-2021DISCHARGE (KAF)1494229265
1FCFM8NF FLATHEAD-NEAR COLUMBIA FALLS07-22-2021DISCHARGE (KAF)18732358
2WGCM8MF FLATHEAD-NEAR WEST GLACIER07-22-2021DISCHARGE (KAF)18126967
3CFMM8FLATHEAD-AT COLUMBIA FALLS07-22-2021DISCHARGE (KAF)941123476
4DLGM8CLARK FORK-AT DEER LODGE07-22-2021DISCHARGE (KAF)294664
5DRMM8CLARK FORK-NR DRUMMOND07-22-2021DISCHARGE (KAF)90MM
6RCCM8ROCK CREEK-NEAR CLINTON07-22-2021DISCHARGE (KAF)636991
7BONM8BLACKFOOT-NEAR BONNER07-22-2021DISCHARGE (KAF)15918188
8ABOM8CLARK FORK-ABOVE MISSOULA07-22-2021DISCHARGE (KAF)32539582
9BITM8BITTERROOT-NEAR MISSOULA07-22-2021DISCHARGE (KAF)18423479
10BELM8CLARK FORK-BELOW MISSOULA07-22-2021DISCHARGE (KAF)51063580
11STRM8ST. REGIS-NEAR ST. REGIS07-22-2021DISCHARGE (KAF)253180
12SRGM8CLARK FORK-AT ST REGIS07-22-2021DISCHARGE (KAF)64083277
13PRTI1PRIEST-NEAR PRIEST RIVER07-22-2021DISCHARGE (KAF)13116678
14SPOW1SPOKANE-AT SPOKANE07-22-2021DISCHARGE (KAF)288MM
15SATI1ST MARIES-NEAR SANTA07-22-2021DISCHARGE (KAF)131876
16CIBW1COLUMBIA-AT INTL BOUNDARY07-22-2021DISCHARGE (KAF)15329MM
17LAUW1KETTLE-AT LAURIER07-22-2021DISCHARGE (KAF)8716054
18TONW1OKANOGAN-NEAR TONASKET07-22-2021DISCHARGE (KAF)16831653
19PATW1METHOW-NEAR PATEROS07-22-2021DISCHARGE (KAF)9813672
20ARDW1ENTIAT-NEAR ARDENVOIR07-22-2021DISCHARGE (KAF)233567
21PESW1WENATCHEE-AT PESHASTIN07-22-2021DISCHARGE (KAF)21229572
22EASW1YAKIMA-AT EASTON07-22-2021DISCHARGE (KAF)647289
23TNAW1TEANAWAY-BELOW FORKS07-22-2021DISCHARGE (KAF)81087
24UMTW1YAKIMA-AT UMTANUM07-22-2021DISCHARGE (KAF)537529101
25CLFW1NACHES-NEAR CLIFFDEL07-22-2021DISCHARGE (KAF)8685101
26NACW1NACHES-NEAR NACHES07-22-2021DISCHARGE (KAF)10412186
27PARW1YAKIMA-NEAR PARKER07-22-2021DISCHARGE (KAF)15416692
28KIOW1YAKIMA-AT KIONA07-22-2021DISCHARGE (KAF)41846790
29CHEI1FALL RIVER-NEAR CHESTER07-22-2021DISCHARGE (KAF)717989
30ANTI1HENRYS FORK-AT ST. ANTHONY07-22-2021DISCHARGE (KAF)27732186
31TEAI1TETON-NEAR ST. ANTHONY07-22-2021DISCHARGE (KAF)12816677
32REXI1HENRYS FORK-AT REXBURG07-22-2021DISCHARGE (KAF)31937984
33JKSW4SNAKE-NEAR JACKSON07-22-2021DISCHARGE (KAF)950786121
34ALPW4SNAKE-NEAR ALPINE07-22-2021DISCHARGE (KAF)1046937112
35HEII1SNAKE-NEAR HEISE07-22-2021DISCHARGE (KAF)1580160798
36SIFI1SNAKE-AB EAGLE ROCK NR IDAHO FALLS07-22-2021DISCHARGE (KAF)11881182100
37SHYI1SNAKE-NEAR SHELLEY07-22-2021DISCHARGE (KAF)1079937115
38SNAI1SNAKE-AT BLACKFOOT07-22-2021DISCHARGE (KAF)709583122
39BFTI1SNAKE-NEAR BLACKFOOT07-22-2021DISCHARGE (KAF)716578124
40PIHI1PORTNEUF-AT POCATELLO07-22-2021DISCHARGE (KAF)133143
41MILI1SNAKE-AT MILNER07-22-2021DISCHARGE (KAF)360151238
42HOTI1BRUNEAU-NEAR HOT SPRINGS07-22-2021DISCHARGE (KAF)92240
43SWAI1SNAKE-BELOW SWAN FALLS07-22-2021DISCHARGE (KAF)1980210394
44HWRI1BIG LOST-AT HOWELL RANCH NEAR CHILLY07-22-2021DISCHARGE (KAF)174042
45HALI1BIG WOOD-AT HAILEY07-22-2021DISCHARGE (KAF)295849
46BIGI1BOISE-AT GLENWOOD BRIDGE07-22-2021DISCHARGE (KAF)12314585
47PARI1BOISE-NEAR PARMA07-22-2021DISCHARGE (KAF)18722185
48EMMI1PAYETTE-NEAR EMMETT07-22-2021DISCHARGE (KAF)25640763
49WSRI1WEISER-NEAR WEISER07-22-2021DISCHARGE (KAF)445185
50WEII1SNAKE-AT WEISER07-22-2021DISCHARGE (KAF)2775307990
51WHBI1SALMON-AT WHITEBIRD07-22-2021DISCHARGE (KAF)867126968
52TRYO3GRANDE RONDE-TROY07-22-2021DISCHARGE (KAF)10620552
53ANAW1SNAKE-NEAR ANATONE07-22-2021DISCHARGE (KAF)3719474378
54ORFI1CLEARWATER-AT OROFINO07-22-2021DISCHARGE (KAF)37952472
55SPDI1CLEARWATER-AT SPALDING07-22-2021DISCHARGE (KAF)14231052135
56TCHW1WALLA WALLA-NEAR TOUCHET07-22-2021DISCHARGE (KAF)61155
57GIBO3UMATILLA-NEAR GIBBON07-22-2021DISCHARGE (KAF)101277
58PDTO3UMATILLA-AT PENDLETON07-22-2021DISCHARGE (KAF)121489
59MYKO3MCKAY CREEK-NEAR PILOT ROCK07-22-2021DISCHARGE (KAF)0151
60UMAO3UMATILLA-NEAR UMATILLA07-22-2021DISCHARGE (KAF)4212334
61MONO3NF JOHN DAY-AT MONUMENT07-22-2021DISCHARGE (KAF)243766
62SERO3JOHN DAY-AT SERVICE CK07-22-2021DISCHARGE (KAF)356255
63MODO3DESCHUTES-AT MOODY NR BIGGS07-22-2021DISCHARGE (KAF)1079111197
64PITW1KLICKITAT-NEAR PITT07-22-2021DISCHARGE (KAF)14919377
65HODO3HOOD-NEAR TUCKER BRIDGE07-22-2021DISCHARGE (KAF)949895
66UNDW1WHITE SALMON-NEAR UNDERWOOD07-22-2021DISCHARGE (KAF)13115982
67LYDM8KOOTENAI-LIBBY DAM07-22-2021INFLOW (KAF)1130179063
68HHWM8SF FLATHEAD-HUNGRY HORSE DAM07-22-2021INFLOW (KAF)18626072
69KERM8FLATHEAD-SELI’Š KSANKA QLISPE’ DAM07-22-2021INFLOW (KAF)979146667
70NOXM8CLARK FORK-NOXON RAPIDS DAM07-22-2021INFLOW (KAF)2175299073
71CABI1CLARK FORK-CABINET GORGE DAM07-22-2021INFLOW (KAF)2397317376
72ALFW1PEND OREILLE-ALBENI FALLS DAM07-22-2021INFLOW (KAF)2468345172
73COEI1COEUR D ALENE-COEUR D ALENE LAKE07-22-2021INFLOW (KAF)18423379
74LLKW1SPOKANE-AT LONGLAKE07-22-2021INFLOW (KAF)43861272
75GCDW1COLUMBIA-GRAND COULEE DAM07-22-2021INFLOW (KAF)158622141874
76CHJW1COLUMBIA-CHIEF JOSEPH DAM07-22-2021INFLOW (KAF)151672068373
77WELW1COLUMBIA-WELLS DAM07-22-2021INFLOW (KAF)154532095074
78CHDW1CHELAN-LAKE CHELAN DAM07-22-2021INFLOW (KAF)14325157
79RRHW1COLUMBIA-ROCKY REACH DAM07-22-2021INFLOW (KAF)157722149173
80WANW1COLUMBIA-WANAPUM DAM07-22-2021INFLOW (KAF)160872174574
81PRWW1COLUMBIA-PRIEST RAPIDS DAM07-22-2021INFLOW (KAF)160952219173
82KEDW1YAKIMA-KEECHELUS LAKE07-22-2021INFLOW (KAF)3828139
83KADW1KACHESS-KACHESS DAM07-22-2021INFLOW (KAF)2718153
84CLUW1CLE ELUM-CLE ELUM LAKE07-22-2021INFLOW (KAF)7878100
85BUDW1BUMPING-BUMPING LAKE DAM07-22-2021INFLOW (KAF)2322103
86RILW1TIETON-RIMROCK LAKE NEAR RIMROCK07-22-2021INFLOW (KAF)7067105
87IPDI1HENRYS FORK-ISLAND PARK DAM07-22-2021INFLOW (KAF)10514573
88JLKW4SNAKE-JACKSON LAKE AT DAM07-22-2021INFLOW (KAF)11116467
89PLDI1SF SNAKE-PALISADES DAM07-22-2021INFLOW (KAF)1274129299
90RIDI1WILLOW CREEK-RIRIE DAM07-22-2021INFLOW (KAF)2636
91AFRI1SNAKE-AMERICAN FALLS RESERVOIR07-22-2021INFLOW (KAF)13091239106
92MACI1BIG LOST-MACKAY RESERVOIR NEAR MACKAY07-22-2021INFLOW (KAF)242887
93MAGI1BIG WOOD-MAGIC DAM07-22-2021INFLOW (KAF)72924
94LWRI1LITTLE WOOD-LITTLE WOOD DAM07-22-2021INFLOW (KAF)51534
95OWYO3OWYHEE-OWYHEE DAM07-22-2021INFLOW (KAF)325162
96ARAI1SF BOISE-ANDERSON RANCH DAM07-22-2021INFLOW (KAF)587478
97LUCI1BOISE-LUCKY PEAK DAM07-22-2021INFLOW (KAF)239MM
98WRMO3MALHEUR-WARM SPRINGS DAM07-22-2021INFLOW (KAF)54109
99BERO3MALHEUR-AGENCY VALLEY DAM07-22-2021INFLOW (KAF)6785
100BULO3BULLY CREEK-BULLY CREEK DAM07-22-2021INFLOW (KAF)M0M
101CSDI1NF PAYETTE-CASCADE DAM07-22-2021INFLOW (KAF)616792
102DEDI1DEADWOOD-NEAR LOWMAN07-22-2021INFLOW (KAF)122059
103BRNI1SNAKE-BROWNLEE DAM07-22-2021INFLOW (KAF)2897313492
104DWRI1NF CLEARWATER-DWORSHAK DAM07-22-2021INFLOW (KAF)25937769
105LGDW1SNAKE-LOWER GRANITE DAM07-22-2021INFLOW (KAF)5137586088
106LGSW1SNAKE-LITTLE GOOSE DAM07-22-2021INFLOW (KAF)5154590187
107LMNW1SNAKE-LOWER MONUMENTAL DAM07-22-2021INFLOW (KAF)5166591987
108IHDW1SNAKE-ICE HARBOR DAM07-22-2021INFLOW (KAF)5166582489
109MCDW1COLUMBIA-MCNARY DAM07-22-2021INFLOW (KAF)218352888476
110JDAO3COLUMBIA-JOHN DAY DAM07-22-2021INFLOW (KAF)222072936476
111TDAO3COLUMBIA-THE DALLES DAM07-22-2021INFLOW (KAF)227962976577
112BONO3COLUMBIA-BONNEVILLE DAM07-22-2021INFLOW (KAF)231863084475
113HOPI1PEND OREILLE-PEND OREILLE LAKE NR HOPE07-22-2021LAKE ELEVATION (FT)MMM
114BFEI1KOOTENAI-AT BONNERS FERRY07-22-2021STAGE (FT)MMM
115SJMI1ST JOE-AT ST MARIES07-22-2021STAGE (FT)MMM